sat.trackr.live / text

‹ back to catalog

GS-1

NORAD 56372 · 2023-060C

PAYLOAD ACTIVE UNKNOWN

§ Identity

Operator
Country
US
Launch date
2023-05-01
Launch site
AFETR
Launch vehicle
Mass (kg)
RCS (m²)

Purposes: comms

External: N2YO · Heavens-Above · Gunter

§ Orbital elements

Epoch: 2026-05-22T17:59:17.759040Z

Period
1,435.96 min
Inclination
2.6612°
Eccentricity
0.0004085
Mean motion
1.00281652 rev/d
Perigee alt
35,766.6 km
Apogee alt
35,801.1 km
Semi-major
42,162.0 km
B*
0.0000e+0
RAAN
80.1187°
Arg perigee
279.8154°
Mean anomaly
239.0757°
Rev number
728

§ Raw data

GS-11 56372U 23060C   26142.74951110 -.00000228  00000+0  00000+0 0  99982 56372   2.6612  80.1187 0004085 279.8154 239.0757  1.00281652  7285

JSON: /api/v1/satellites/56372 · /tle

For live sub-satellite position, see the globe view (requires WebGL).

§ Visibility from observer

Set your observer location to see the next 7 days of passes ≥ 10°. The values pass through the URL so the page stays shareable.

No JS? Fill the form by hand. The geolocation button needs JavaScript.